Location: Assche-ter-Heiden
(50.9174°N, 4.1574°E)
Time: 17:16:48
(UTC+00:00)

Cosmos 158 Rocket - Pass Details

Date: 20 January 2020
Orbit: 698 x 794 km, 74.0° (Epoch: 25 February)

Event Time Altitude Azimuth Distance (km) Brightness Sun altitude
Rises 06:22:21 0° 196° (SSW) 3,068 7.2 -11.3°
Reaches altitude 10° 06:24:39 10° 194° (SSW) 2,156 6.4 -10.9°
Maximum altitude 06:29:29 71° 111° (ESE) 745 4.2 -10.2°
Drops below altitude 10° 06:34:24 10° 28° (NNE) 2,197 6.5 -9.5°
Sets 06:36:45 0° 26° (NNE) 3,132 7.2 -9.2°
